Regional Weather Roundup
Issued by NWS Sterling, VA

Home | Current Version | Previous Version | Text Only | Print | Product List | Glossary Off
Versions: 1 2 3 4 5 6 7 8 9 10 11 12 13 14 15 16 17 18 19 20 21 22 23 24 25 26 27 28 29 30 31 32 33 34 35 36 37 38 39 40 41 42 43 44 45 46 47 48 49 50

000
ASUS41 KLWX 220511
RWRLWX

REGIONAL WEATHER ROUNDUP
NATIONAL WEATHER SERVICE BALTIMORE MD/WASHINGTON DC
100 AM EDT SUN OCT 22 2017

Note: "FAIR" indicates few or no clouds below 12,000 feet
with no significant weather and/or obstructions to visibility.
 TC=TEMPERATURE CELSIUS

 * =Non NWS site. Station does not report precipitation (e.g. rain,
    snow, etc.), thunder, or fog.

DCZ001-MDZ009-015-VAZ040>042-051-053>054-220600-
WASHINGTON METRO

CITY           SKY/WX    TMP DP  RH WIND       PRES   REMARKS
WASHINGTON NAT MOCLDY    59  51  75 CALM      30.35F
DULLES         PTCLDY    49  46  90 CALM      30.35F
ANDREWS AFB    CLEAR     52  45  77 CALM      30.34F
FT BELVOIR     CLEAR     50  49  95 CALM      30.35
QUANTICO       CLEAR     54  53  97 NW8       30.36F
COLLEGE PARK*  CLEAR     49  47  95 CALM      30.35S
LEESBURG*      PTCLDY    50  50 100 CALM      30.36S
MANASSAS*      CLEAR     47  46  97 CALM      30.36S
GAITHERSBURG*  CLEAR     50  46  86 CALM      30.36S

$$

MDZ006>007-011-014-220600-
BALTIMORE METRO

CITY           SKY/WX    TMP DP  RH WIND       PRES   REMARKS
BWI AIRPORT    PTCLDY    51  50  96 CALM      30.35F
MD SCIENCE CTR   N/A     61  50  67 MISG      30.36F
MARTIN STATE   PTCLDY    52  52 100 CALM      30.37S
ANNAPOLIS      CLEAR     57  57 100 CALM      30.35S
FORT MEADE*    CLEAR     45  45 100 CALM      30.38F

$$

MDZ012-015-019>023-220600-
MARYLAND EASTERN SHORE

CITY           SKY/WX    TMP DP  RH WIND       PRES   REMARKS
OCEAN CITY     PTCLDY    52  52 100 CALM      30.36F
SALISBURY      PTCLDY    51  50  96 CALM      30.35F
CAMBRIDGE*     CLEAR     52  50  93 CALM      30.35F
EASTON*        PTCLDY    55  50  83 CALM      30.39S

$$

MDZ017>025-220600-
SOUTHERN MARYLAND

CITY           SKY/WX    TMP DP  RH WIND       PRES   REMARKS
PATUXENT RIVER CLEAR     51  50  96 W3        30.35S
ST INIGOES     CLEAR     51  50  96 CALM      30.35S
LEONARDTOWN*   NOT AVBL

$$

MDZ003>005-220600-
NORTH CENTRAL MARYLAND

CITY           SKY/WX    TMP DP  RH WIND       PRES   REMARKS
FREDERICK*     CLEAR     48  48 100 CALM      30.38R
HAGERSTOWN APT CLEAR     60  45  57 S3        30.34S
WESTMINSTER*   CLEAR     57  45  62 CALM      30.35F

$$

MDZ501>502-220600-
WESTERN MARYLAND

CITY           SKY/WX    TMP DP  RH WIND       PRES   REMARKS
OAKLAND*       CLEAR     54  45  71 SE8       30.33S
CUMBERLAND*    PTCLDY    54  50  87 CALM      30.36F

$$

VAZ025>031-220600-
SHENANDOAH VALLEY

CITY           SKY/WX    TMP DP  RH WIND       PRES   REMARKS
WINCHESTER*    PTCLDY    55  43  62 CALM      30.33F
FRONT ROYAL*   PTCLDY    52  46  82 CALM      30.33S
LURAY*         CLOUDY    52  50  93 CALM      30.34F
NEW MARKET*    CLOUDY    50  48  94 CALM      30.34S
STAUNTON*      CLOUDY    49  46  92 CALM      30.37S
WAYNESBORO*    MOCLDY    55  51  85 S9        30.36S

$$

WVZ021-048>050-054>055-220600-
EASTERN WEST VIRGINIA PANHANDLE

CITY           SKY/WX    TMP DP  RH WIND       PRES   REMARKS
MARTINSBURG    PTCLDY    49  46  90 W3        30.33F
PETERSBURG*    CLEAR     49  47  95 CALM      30.34S

$$

VAZ036>039-050-220600-
CENTRAL FOOTHILLS

CITY           SKY/WX    TMP DP  RH WIND       PRES   REMARKS
CHARLOTTESVILL MOCLDY    58  53  84 CALM      30.35F
CULPEPER*      PTCLDY    50  47  90 CALM      30.37S
ORANGE*        PTCLDY    52  48  87 CALM      30.35F
GORDONSVILLE*  PTCLDY    51  50  98 CALM      30.35S
WARRENTON*     PTCLDY    47  43  87 CALM      30.35S

$$

VAZ055>057-220600-
NORTH AND CENTRAL PIEDMONT

CITY           SKY/WX    TMP DP  RH WIND       PRES   REMARKS
FREDERICKSBRG* PTCLDY    51  51 100 CALM      30.35S
STAFFORD*      CLEAR     47  47 100 CALM      30.39S

$$

NCZ024-NYZ072-PAZ021-071-VAZ022-071-220600-
OTHER REGIONAL OBSERVATIONS

CITY           SKY/WX    TMP DP  RH WIND       PRES   REMARKS
NEW YORK CITY  CLEAR     63  47  55 W3        30.38S
PHILADELPHIA   PTCLDY    58  49  72 CALM      30.37S
PITTSBURGH     PTCLDY    56  53  90 CALM      30.26F
ROANOKE        MOCLDY    57  53  86 CALM      30.37S
RICHMOND       CLOUDY    56  53  90 CALM      30.35S
RALEIGH        CLOUDY    58  54  86 CALM      30.35R

$$

ANZ530>537-220600-
MARINE OBSERVATIONS

STATION/POSITION TIME  TEMP    WIND        PRES
                       AIR SEA DIR/SP/G
                 (UTC) (F)     (DEG/KT/KT) (MB)
THOMAS PT LIGHT  0500   66 67  160/  7/  8   N/A
BALT KEY BRIDGE  0448   62      10/  2/  2 1027.7F
COVE POINT       0448   65     210/  5/  6 1028.4F
LEWISETTA        0448   60 67  290/  1/  2 1027.7S
SOLOMONS ISLAND  0436   59 69  320/  2/  3 1027.4F
PINEY POINT      0442          180/  4/  5   N/A

$$




USA.gov is the U.S. government's official web portal to all federal, state and local government web resources and services.